Location: Aix-en-Ergny
(50.5839°N, 1.9996°E)
Time: 07:01:08
(UTC+00:00)

Cosmos 1726 Rocket - Pass Details

Date: 23 October 2019
Orbit: 602 x 630 km, 82.5° (Epoch: 14 November)

Event Time Altitude Azimuth Distance (km) Brightness Sun altitude
Rises 04:07:34 0° 349° (N) 2,869 7.0 -22.7°
Reaches altitude 10° 04:09:47 10° 349° (N) 1,960 6.1 -22.4°
Maximum altitude 04:14:07 86° 262° (W) 612 3.4 -21.7°
Drops below altitude 10° 04:18:26 10° 173° (S) 1,946 6.1 -21.0°
Sets 04:20:38 0° 173° (S) 2,847 7.0 -20.7°
